Flag for Germany Weather past 2 weeks in Dessau-Rosslau, Saxony-Anhalt, Germany

Now
70 °F

Sunny.


Feels Like: 70 °F
Forecast: 58 / 91 °F
Wind: 6 mph from North

Location: Leipzig-Schkeuditz

Current Time: Jul 6, 2015 at 10:03:31 PM

Latest Report: Jul 6, 2015 at 9:20 PM


Visibility: 10 mi

Pressure: 30.09 "Hg

Humidity: 60%

Dew point: 55 °F

Location of Dessau-RosslauLocation

Historic Weather in Dessau-Rosslau — Graph

°F

Dessau-Rosslau temperature yesterday

Maximum temperature yesterday: 99 °F (at 3:20 PM)
Minimum temperature yesterday: 68 °F (at 10:20 PM)
Average temperature yesterday: 85 °F

Past Weeks' High & Low Weather Summary

 TemperatureHumidityPressure
High99 °F (Jul 4, 2:50 PM)100% (Jun 22, 5:20 AM)30.27 "Hg (Jun 22, 5:20 AM)
Low48 °F (Jun 25, 3:20 AM)21% (Jul 5, 5:20 PM)29.62 "Hg (Jun 23, 1:50 AM)
Average69 °F62%30.08 "Hg
* Reported Jun 21 8:50 PM — Jul 6 8:50 PM, Dessau-Rosslau, Weather by CustomWeather, © 2015

Note: Actual official high and low records may vary slightly from our data, if they occured in-between our weather recording intervals... More about our weather records

Advertising

Dessau-Rosslau weather history for previous 24 hours

 ConditionsComfort  
Time TempWeatherWind HumidityBarometerVisibility
8:50 PM
Mon, Jul 6
73 °FSunny.7 mph50%30.09 "Hg10 mi
8:20 PM75 °FSunny.6 mph47%30.09 "Hg10 mi
7:50 PM77 °FSunny.9 mph39%30.09 "Hg10 mi
7:20 PM77 °FSunny.9 mph34%30.09 "Hg10 mi
6:50 PM79 °FSunny.6 mph34%30.09 "Hg10 mi
6:20 PM79 °FSunny.7 mph32%30.09 "Hg10 mi
5:50 PM79 °FSunny.10 mph32%30.09 "Hg10 mi
5:20 PM79 °FSunny.9 mph30%30.12 "Hg10 mi
4:50 PM79 °FSunny.15 mph34%30.12 "Hg10 mi
4:20 PM79 °FSunny.12 mph32%30.12 "Hg10 mi
3:50 PM77 °FSunny.13 mph36%30.12 "Hg10 mi
3:20 PM77 °FSunny.16 mph39%30.12 "Hg10 mi
2:50 PM77 °FSunny.10 mph42%30.12 "Hg10 mi
2:20 PM75 °FSunny.14 mph44%30.12 "Hg10 mi
1:50 PM75 °FSunny.15 mph47%30.15 "Hg10 mi
1:20 PM75 °FPartly sunny.16 mph44%30.15 "HgN/A
12:50 PM73 °FPartly sunny.18 mph47%30.15 "HgN/A
12:20 PM73 °FPartly sunny.18 mph47%30.15 "HgN/A
11:50 AM72 °FPartly sunny.16 mph53%30.15 "HgN/A
11:20 AM72 °FPartly sunny.14 mph57%30.15 "HgN/A
10:50 AM72 °FPartly sunny.12 mph65%30.15 "HgN/A
10:20 AM70 °FBroken clouds.10 mph73%30.15 "HgN/A
9:50 AM68 °FBroken clouds.7 mph78%30.15 "HgN/A
9:20 AM66 °FPartly sunny.9 mph78%30.12 "HgN/A
8:50 AM66 °FPartly sunny.12 mph78%30.12 "HgN/A
8:20 AM64 °FPartly sunny.10 mph88%30.12 "HgN/A
7:50 AM64 °FLight rain. Partly sunny.8 mph88%30.09 "HgN/A
7:20 AM64 °FPartly sunny.10 mph88%30.09 "HgN/A
6:50 AM64 °FPartly sunny.9 mph88%30.07 "HgN/A
6:20 AM64 °FPartly sunny.10 mph88%30.07 "HgN/A
5:20 AM66 °FPassing clouds.14 mph88%30.04 "HgN/A
4:50 AM68 °FPartly cloudy.9 mph100%30.01 "Hg4 mi
4:20 AM68 °FSprinkles. Partly cloudy.8 mph100%29.98 "Hg5 mi
3:50 AM68 °FSprinkles. Passing clouds.9 mph94%30.04 "HgN/A
3:20 AM68 °FSprinkles. Partly cloudy.5 mph94%30.01 "HgN/A
2:50 AM68 °FPassing clouds.6 mph94%30.01 "HgN/A
2:20 AM68 °FPassing clouds.7 mph94%29.98 "HgN/A
1:50 AM68 °FThunderstorms. Partly cloudy.6 mph94%29.98 "HgN/A
1:20 AM68 °FPassing clouds.14 mph94%29.98 "HgN/A
12:50 AM68 °FPassing clouds.5 mph88%29.95 "HgN/A
12:20 AM70 °FThundershowers. Partly cloudy.12 mph83%29.95 "HgN/A
11:50 PM
Sun, Jul 5
68 °FThunderstorms. Partly cloudy.13 mph94%29.95 "Hg5 mi
11:20 PM68 °FStrong thunderstorms. Partly cloudy.21 mph94%29.98 "Hg4 mi
10:50 PM68 °FThunderstorms. Passing clouds.12 mph83%29.89 "Hg4 mi
10:20 PM68 °FThunderstorms. Broken clouds.18 mph83%29.89 "Hg5 mi
Weather by CustomWeather, © 2015

See weather overviewHow to use our weather pages